313  
ASUS41 KCTP 280410  
RWRCTP  
 
REGIONAL WEATHER ROUNDUP  
NATIONAL WEATHER SERVICE STATE COLLEGE PA  
1100 PM EST SUN NOV 27 2022  
 
NOTE: "FAIR" INDICATES FEW OR NO CLOUDS BELOW 12,000 FEET WITH NO  
SIGNIFICANT WEATHER AND/OR S TO VISIBILITY
.  
 
* = STATION THAT DOES NOT REPORT PRECIPITATION /E.G. RAIN...SNOW...ETC/  
THUNDER OR FOG.
 
 
PAZ002>004-007>009-013>016-020>023-029>032-280500-  
WESTERN PENNSYLVANIA  
 
CITY SKY/WX TMP DP RH WIND PRES REMARKS
 
ERIE CLOUDY 42 38 85 NW6 29.55R  
MEADVILLE CLOUDY 40 39 97 NW10 29.52R  
FRANKLIN LGT RAIN 43 43 100 W12 29.52 FOG  
NEW CASTLE LGT RAIN 44 44 100 NW14G20 29.56R FOG  
BEAVER COUNTY DRIZZLE 51 46 84 SW14G22 29.53R  
BUTLER LGT RAIN 48 47 96 SW13G22 29.53R  
PITTSBURGH INT DRIZZLE 49 45 86 SW14G25 29.54R FOG  
PITTSBURGH LGT RAIN 51 46 83 SW14G23 29.55R  
INDIANA* CLOUDY 48 48 100 W17G24 29.54S FOG  
LATROBE MOCLDY 50 46 87 SW16G25 29.54S  
WASHINGTON CO* LGT RAIN 48 46 93 SW14G22 29.60R  

 
 
PAZ004>006-010>012-017>019-024>028-033>037-041-042-045-046-049>053-280500-  
CENTRAL PENNSYLVANIA  
 
CITY SKY/WX TMP DP RH WIND PRES REMARKS
 
BRADFORD NOT AVBL  
ST MARYS CLOUDY 46 45 93 W15G24 29.45S  
DUBOIS CLOUDY 48 44 86 W24G30 29.44S  
CLEARFIELD CLOUDY 49 44 83 W13G21 29.46R  
JOHNSTOWN CLOUDY 47 45 93 W23G39 29.49R  
SOMERSET CLOUDY 45 41 87 SW18 29.53R  
ALTOONA CLOUDY 52 42 69 W20G30 29.50R  
STATE COLLEGE CLOUDY 51 45 79 W16G26 29.47R  
REEDSVILLE CLOUDY 52 45 76 SW13G21 29.47R  
WELLSBORO CLOUDY 46 45 93 SW10G16 29.39R  
WILLIAMSPORT CLOUDY 42 41 96 E5 29.44R FOG  
SELINSGROVE CLOUDY 43 43 100 CALM 29.48R  
FT INDIANTOWN FOG 45 45 100 MISG 29.48R VSB 7/8  
CAPITAL CITY CLOUDY 46 43 89 CALM 29.50R FOG  
HARRISBURG FOG 44 44 100 NW6 29.50R VSB 1  
YORK CLOUDY 55 45 68 SW7 29.50R  

 
 
PAZ038>040-043-044-047-048-054-055-060>062-067>071-280500-  
EASTERN PENNSYLVANIA  
 
CITY SKY/WX TMP DP RH WIND PRES REMARKS
 
TOWANDA CLEAR 48 45 87 SW3 29.41R  
SCRANTON N/A N/A N/A N/A MISG 29.42R  
MOUNT POCONO CLOUDY 45 43 93 W18G25 29.42R  
HAZLETON CLOUDY 46 43 87 SW6 29.47R  
LEHIGHTON MOCLDY 41 39 93 CALM 29.47R FOG  
ALLENTOWN CLOUDY 47 45 93 SW10 29.47R  
QN CITY/ALNTWN CLOUDY 46 46 100 SW9 29.50R FOG  
QUAKERTOWN* PTCLDY 48 50 100 SW5 29.49R  
PERKASIE* PTCLDY 48 48 100 W7 29.49R  
DOYLESTOWN CLEAR 51 48 89 SW7 29.48R  
READING CLOUDY 48 46 93 W3 29.49R FOG  
LANCASTER FOG 48 46 93 NW5 29.50R VSB 1/4  
COATESVILLE CLEAR 52 52 100 VRB7G14 29.51S  
WEST CHESTER PTCLDY 52 50 93 W5 29.50S  
POTTSTOWN NOT AVBL  
BLUE BELL CLEAR 52 49 89 SW5 29.50R  
NORTH PHILA CLEAR 57 47 69 W10 29.50R  
PHILADELPHIA CLEAR 53 51 93 W8 29.50R  

 
 
 
CLICK HERE TO GO TO PREVIOUS BULLETINS.

The Nexlab PA Page Main Text Page